TimePDT,TemperatureF,Dew PointF,Humidity,Sea Level PressureIn,VisibilityMPH,Wind Direction,Wind SpeedMPH,Gust SpeedMPH,PrecipitationIn,Events,Conditions,WindDirDegrees,DateUTC
12:52 AM,70.0,32.0,25,29.79,10.0,WNW,4.6,-,N/A,,Clear,300,2013-04-07 07:52:00
1:52 AM,68.0,30.0,24,29.79,10.0,WNW,6.9,-,N/A,,Clear,300,2013-04-07 08:52:00
2:52 AM,68.0,30.9,25,29.78,10.0,SSW,3.5,-,N/A,,Clear,210,2013-04-07 09:52:00
3:52 AM,69.1,32.0,25,29.77,10.0,Calm,Calm,-,N/A,,Clear,0,2013-04-07 10:52:00
4:52 AM,64.0,32.0,30,29.78,10.0,WNW,8.1,-,N/A,,Clear,300,2013-04-07 11:52:00
5:52 AM,63.0,32.0,31,29.78,10.0,WSW,3.5,-,N/A,,Clear,240,2013-04-07 12:52:00
6:52 AM,63.0,32.0,31,29.81,10.0,Calm,Calm,-,N/A,,Clear,0,2013-04-07 13:52:00
7:52 AM,69.1,33.1,26,29.82,10.0,NW,4.6,-,N/A,,Clear,310,2013-04-07 14:52:00
9:52 AM,79.0,35.1,20,29.84,10.0,Calm,Calm,-,N/A,,Clear,0,2013-04-07 16:52:00
10:52 AM,80.1,35.1,20,29.84,10.0,Calm,Calm,-,N/A,,Clear,0,2013-04-07 17:52:00
11:52 AM,82.9,35.1,18,29.81,10.0,Calm,Calm,-,N/A,,Clear,0,2013-04-07 18:52:00
12:52 PM,84.0,34.0,17,29.79,10.0,SE,4.6,-,N/A,,Clear,130,2013-04-07 19:52:00
1:52 PM,87.1,35.1,16,29.76,10.0,South,5.8,-,N/A,,Clear,180,2013-04-07 20:52:00
2:52 PM,88.0,34.0,15,29.74,10.0,WSW,6.9,-,N/A,,Clear,250,2013-04-07 21:52:00
3:52 PM,87.1,37.9,18,29.70,10.0,ESE,6.9,-,N/A,,Clear,120,2013-04-07 22:52:00
4:52 PM,88.0,37.0,16,29.68,10.0,SSE,9.2,-,N/A,,Clear,160,2013-04-07 23:52:00
5:52 PM,87.1,37.0,17,29.66,10.0,SSE,8.1,-,N/A,,Clear,160,2013-04-08 00:52:00
6:52 PM,84.9,37.0,18,29.64,10.0,SSE,3.5,-,N/A,,Clear,150,2013-04-08 01:52:00
7:52 PM,82.0,37.9,21,29.63,10.0,SSW,8.1,-,N/A,,Clear,200,2013-04-08 02:52:00
8:52 PM,81.0,39.0,22,29.65,10.0,SW,11.5,-,N/A,,Clear,230,2013-04-08 03:52:00
9:52 PM,77.0,39.9,26,29.65,10.0,SW,6.9,-,N/A,,Clear,220,2013-04-08 04:52:00
10:52 PM,77.0,42.1,29,29.65,10.0,SSW,6.9,-,N/A,,Clear,210,2013-04-08 05:52:00
11:52 PM,75.0,43.0,32,29.63,10.0,SW,6.9,-,N/A,,Clear,230,2013-04-08 06:52:00